Change the Weather History Date:

Tuesday, May 28, 2013

  Actual Average (KCUT) Record (KCUT)
Temperature  
Mean Temperature 57 °F 52 °F  
Max Temperature 73 °F 64 °F 90 °F (1969)
Min Temperature 41 °F 40 °F 23 °F (1947)
Degree Days  
Heating Degree Days 8 13  
Month to date heating degree days 480  
Since 1 July heating degree days 8130  
Cooling Degree Days 0 0  
Month to date cooling degree days 0  
Year to date cooling degree days 0  
Growing Degree Days 7 (Base 50)    
Moisture  
Dew Point 40 °F    
Average Humidity 58    
Maximum Humidity 93    
Minimum Humidity 25    
Precipitation  
Precipitation 0.00 in 0.10 in 1.59 in (2006)
Month to date precipitation 2.76  
Year to date precipitation 6.75  
Sea Level Pressure  
Sea Level Pressure 29.75 in    
Wind  
Wind Speed 5 mph (ESE)    
Max Wind Speed 24 mph    
Max Gust Speed 37 mph    
Visibility 10 miles    
Events Thunderstorm    
T = Trace of Precipitation, MM = Missing Value Source: NWS Daily Summary

Daily Weather History Graph

Daily Weather History Graph

Search for Another Location

Airport or City:

Trip Planner

Search our weather history database for the weather conditions in past years. The results will help you decide how hot, cold, wet, or windy it might be!

Date:

Astronomy

May. 28, 2013 Rise Set
Actual Time 5:19 AM MDT 8:29 PM MDT
Civil Twilight 4:45 AM MDT 9:04 PM MDT
Nautical Twilight 4:00 AM MDT 9:49 PM MDT
Astronomical Twilight 3:06 AM MDT 10:44 PM MDT
Moon 11:50 PM MDT (5/28) 9:14 AM MDT (5/28)
Length of Visible Light 16h 19m
Length of Day
15h 09m
Waning Gibbous, 82% of the Moon is Illuminated
May 28
Waning Gibbous
May 31
Last Quarter
Jun 8
New
Jun 16
First Quarter
Jun 23
Full

Hourly Weather History & Observations

Time (MDT) Temp. Windchill Dew Point Humidity Pressure Visibility Wind Dir Wind Speed Gust Speed Precip Events Conditions
12:15 AM 44.6 °F - 39.2 °F 81% 29.81 in 10.0 mi Calm Calm - N/A   Clear
12:35 AM 44.6 °F 42.2 °F 37.4 °F 76% 29.82 in 10.0 mi ESE 4.6 mph - N/A   Clear
12:55 AM 44.6 °F 42.2 °F 41.0 °F 87% 29.83 in 10.0 mi SE 4.6 mph - N/A   Clear
1:15 AM 42.8 °F - 41.0 °F 93% 29.83 in 10.0 mi Calm Calm - N/A   Clear
1:35 AM 44.6 °F - 41.0 °F 87% 29.83 in 10.0 mi Calm Calm - N/A   Clear
1:55 AM 44.6 °F - 41.0 °F 87% 29.82 in 10.0 mi Calm Calm - N/A   Clear
2:15 AM 42.8 °F - 37.4 °F 81% 29.82 in 10.0 mi Calm Calm - N/A   Clear
2:35 AM 42.8 °F 38.6 °F 37.4 °F 81% 29.82 in 10.0 mi North 6.9 mph - N/A   Clear
2:55 AM 42.8 °F 38.6 °F 37.4 °F 81% 29.82 in 10.0 mi North 6.9 mph - N/A   Clear
3:15 AM 42.8 °F 39.3 °F 37.4 °F 81% 29.82 in 10.0 mi North 5.8 mph - N/A   Clear
3:35 AM 42.8 °F - 37.4 °F 81% 29.82 in 10.0 mi North - - N/A   Clear
3:55 AM 42.8 °F 39.3 °F 37.4 °F 81% 29.82 in 10.0 mi North 5.8 mph - N/A   Clear
4:15 AM 41.0 °F 36.4 °F 37.4 °F 87% 29.83 in 10.0 mi North 6.9 mph - N/A   Clear
4:35 AM 41.0 °F 38.0 °F 35.6 °F 81% 29.84 in 10.0 mi NNE 4.6 mph - N/A   Clear
4:55 AM 41.0 °F 38.0 °F 37.4 °F 87% 29.84 in 10.0 mi North 4.6 mph - N/A   Clear
5:15 AM 42.8 °F 38.6 °F 37.4 °F 81% 29.83 in 10.0 mi North 6.9 mph - N/A   Clear
5:35 AM 42.8 °F 38.0 °F 37.4 °F 81% 29.82 in 10.0 mi North 8.1 mph - N/A   Clear
5:55 AM 41.0 °F 38.0 °F 37.4 °F 87% 29.82 in 10.0 mi NNE 4.6 mph - N/A   Clear
6:15 AM 42.8 °F 41.1 °F 37.4 °F 81% 29.82 in 10.0 mi NNE 3.5 mph - N/A   Clear
6:35 AM 44.6 °F 40.2 °F 37.4 °F 76% 29.82 in 10.0 mi North 8.1 mph - N/A   Clear
6:55 AM 46.4 °F 45.2 °F 41.0 °F 81% 29.82 in 10.0 mi SSW 3.5 mph - N/A   Clear
7:15 AM 48.2 °F - 41.0 °F 76% 29.82 in 10.0 mi South 4.6 mph - N/A   Clear
7:35 AM 48.2 °F - 41.0 °F 76% 29.82 in 10.0 mi South 5.8 mph - N/A   Clear
7:55 AM 50.0 °F - 41.0 °F 71% 29.81 in 10.0 mi South 3.5 mph - N/A   Clear
8:15 AM 50.0 °F - 41.0 °F 71% 29.80 in 10.0 mi Calm Calm - N/A   Clear
8:35 AM 53.6 °F - 42.8 °F 67% 29.80 in 10.0 mi SSE 3.5 mph - N/A   Clear
8:55 AM 53.6 °F - 41.0 °F 62% 29.80 in 10.0 mi SSE 4.6 mph - N/A   Clear
9:15 AM 55.4 °F - 39.2 °F 54% 29.80 in 10.0 mi Calm Calm - N/A   Clear
9:35 AM 55.4 °F - 39.2 °F 54% 29.80 in 10.0 mi Calm Calm - N/A   Clear
9:55 AM 59.0 °F - 37.4 °F 45% 29.79 in 10.0 mi Calm Calm - N/A   Clear
10:15 AM 59.0 °F - 37.4 °F 45% 29.78 in 10.0 mi South 4.6 mph - N/A   Clear
10:35 AM 60.8 °F - 37.4 °F 42% 29.78 in 10.0 mi Calm Calm - N/A   Clear
10:55 AM 62.6 °F - 35.6 °F 37% 29.77 in 10.0 mi SE 4.6 mph - N/A   Clear
11:15 AM 64.4 °F - 35.6 °F 34% 29.77 in 10.0 mi SE 9.2 mph - N/A   Clear
11:35 AM 64.4 °F - 33.8 °F 32% 29.76 in 10.0 mi South 3.5 mph - N/A   Clear
11:55 AM 68.0 °F - 32.0 °F 26% 29.75 in 10.0 mi SSE 10.4 mph - N/A   Clear
12:15 PM 68.0 °F - 33.8 °F 28% 29.76 in 10.0 mi SSE 9.2 mph 16.1 mph N/A   Clear
12:35 PM 68.0 °F - 35.6 °F 30% 29.75 in 10.0 mi South 9.2 mph 16.1 mph N/A   Clear
12:55 PM 68.0 °F - 39.2 °F 35% 29.75 in 10.0 mi SSE 10.4 mph 16.1 mph N/A   Clear
1:15 PM 68.0 °F - 41.0 °F 37% 29.74 in 10.0 mi South 9.2 mph 16.1 mph N/A   Clear
1:35 PM 69.8 °F - 41.0 °F 35% 29.73 in 10.0 mi North - - N/A   Clear
1:55 PM 69.8 °F - 39.2 °F 33% 29.73 in 10.0 mi North - - N/A   Clear
2:15 PM 69.8 °F - 41.0 °F 35% 29.72 in 10.0 mi North - - N/A   Clear
2:35 PM 71.6 °F - 41.0 °F 33% 29.72 in 10.0 mi North - - N/A   Scattered Clouds
2:55 PM 71.6 °F - 41.0 °F 33% 29.71 in 10.0 mi North - - N/A   Clear
3:15 PM 71.6 °F - 41.0 °F 33% 29.70 in 10.0 mi North - - N/A   Clear
3:35 PM 71.6 °F - 41.0 °F 33% 29.69 in 10.0 mi North - - N/A   Clear
3:55 PM 73.4 °F - 41.0 °F 31% 29.65 in 10.0 mi North - - N/A   Clear
4:15 PM 73.4 °F - 41.0 °F 31% 29.66 in 10.0 mi North - - N/A   Clear
4:35 PM 73.4 °F - 41.0 °F 31% 29.66 in 10.0 mi ESE 10.4 mph - N/A   Clear
4:55 PM 73.4 °F - 35.6 °F 25% 29.66 in 10.0 mi North - - N/A Thunderstorm Clear
5:15 PM 73.4 °F - 35.6 °F 25% 29.65 in 10.0 mi SSE 11.5 mph - N/A   Clear
5:35 PM 73.4 °F - 41.0 °F 31% 29.65 in 10.0 mi North - - N/A   Clear
5:55 PM 71.6 °F - 42.8 °F 35% 29.65 in 10.0 mi North - - N/A   Scattered Clouds
6:15 PM 69.8 °F - 42.8 °F 38% 29.65 in 10.0 mi SSE 11.5 mph - N/A   Clear
6:35 PM 59.0 °F - 46.4 °F 63% 29.67 in 10.0 mi East 24.2 mph 36.8 mph N/A   Scattered Clouds
6:55 PM 60.8 °F - 46.4 °F 59% 29.66 in 10.0 mi East 15.0 mph 27.6 mph N/A   Scattered Clouds
7:15 PM 62.6 °F - 48.2 °F 59% 29.65 in 10.0 mi East 17.3 mph - N/A   Clear
7:35 PM 62.6 °F - 46.4 °F 55% 29.64 in 10.0 mi ESE 11.5 mph - N/A   Clear
7:55 PM 62.6 °F - 46.4 °F 55% 29.63 in 10.0 mi East 8.1 mph 18.4 mph N/A   Clear
8:15 PM 59.0 °F - 44.6 °F 59% 29.64 in 10.0 mi ESE 6.9 mph - N/A   Clear
8:35 PM 60.8 °F - 42.8 °F 52% 29.65 in 10.0 mi East 4.6 mph - N/A   Clear
8:55 PM 59.0 °F - 44.6 °F 59% 29.67 in 10.0 mi NNE 3.5 mph - N/A   Clear
9:15 PM 55.4 °F - 44.6 °F 67% 29.70 in 10.0 mi South 3.5 mph - N/A   Clear
9:35 PM 57.2 °F - 44.6 °F 63% 29.71 in 10.0 mi East 4.6 mph - N/A Thunderstorm Scattered Clouds
9:55 PM 55.4 °F - 46.4 °F 72% 29.71 in 10.0 mi ESE 3.5 mph - N/A   Clear
10:15 PM 57.2 °F - 44.6 °F 63% 29.72 in 10.0 mi ESE 9.2 mph - N/A   Clear
10:35 PM 59.0 °F - 44.6 °F 59% 29.72 in 10.0 mi ENE 5.8 mph - N/A   Clear
10:55 PM 59.0 °F - 42.8 °F 55% 29.72 in 10.0 mi East 6.9 mph - N/A   Clear
11:15 PM 57.2 °F - 42.8 °F 59% 29.72 in 10.0 mi North - - N/A   Clear
11:35 PM 57.2 °F - 42.8 °F 59% 29.71 in 10.0 mi North - - N/A   Clear
11:55 PM 55.4 °F - 42.8 °F 63% 29.71 in 10.0 mi ESE 3.5 mph - N/A   Clear